Harry S. Truman Reservoir Weather Center

Moon Phase Calendar



Harry S. Truman Reservoir Water Level
Online Cameras

 


      

Current Conditions in Valley View
10/27/2021 3:31:10 PM

57°F
Feels Like 58
Mist
Humidity
100%
Pressure
29.62"
Wind
5.8 mph (SE)
Dew Point
57°F
UV Index
0/10 (Low)
Visibility
6 mi

Hourly Forecast

Date & Time Wed, Oct 27
3:00 PM
Wed, Oct 27
4:00 PM
Wed, Oct 27
5:00 PM
Wed, Oct 27
6:00 PM
Wed, Oct 27
7:00 PM
Wed, Oct 27
8:00 PM
Wed, Oct 27
9:00 PM
Wed, Oct 27
10:00 PM
Wed, Oct 27
11:00 PM
Thu, Oct 28
12:00 AM
Thu, Oct 28
1:00 AM
Thu, Oct 28
2:00 AM
Thu, Oct 28
3:00 AM
Thu, Oct 28
4:00 AM
Thu, Oct 28
5:00 AM
Thu, Oct 28
6:00 AM
Thu, Oct 28
7:00 AM
Thu, Oct 28
8:00 AM
Thu, Oct 28
9:00 AM
Thu, Oct 28
10:00 AM
Thu, Oct 28
11:00 AM
Thu, Oct 28
12:00 PM
Thu, Oct 28
1:00 PM
Thu, Oct 28
2:00 PM
Thu, Oct 28
3:00 PM
Thu, Oct 28
4:00 PM
Thu, Oct 28
5:00 PM
Thu, Oct 28
6:00 PM
Thu, Oct 28
7:00 PM
Thu, Oct 28
8:00 PM
Thu, Oct 28
9:00 PM
Thu, Oct 28
10:00 PM
Thu, Oct 28
11:00 PM
Fri, Oct 29
12:00 AM
Fri, Oct 29
1:00 AM
Fri, Oct 29
2:00 AM
Fri, Oct 29
3:00 AM
Fri, Oct 29
4:00 AM
Fri, Oct 29
5:00 AM
Fri, Oct 29
6:00 AM
Fri, Oct 29
7:00 AM
Fri, Oct 29
8:00 AM
Fri, Oct 29
9:00 AM
Fri, Oct 29
10:00 AM
Fri, Oct 29
11:00 AM
Fri, Oct 29
12:00 PM
Fri, Oct 29
1:00 PM
Fri, Oct 29
2:00 PM
Condition
Rain

Rain

Rain

Rain

Rain

Rain

Rain

Rain

Rain

Rain

Rain

Rain

Rain

Rain

Rain

Rain

Rain

Rain

Rain

Rain

Rain

Rain

Rain

Rain

Rain

Rain

Rain

Rain

Rain

Rain

Rain

Rain

Rain

Rain

Rain

Rain

Rain

Rain

Rain

Rain

Rain

Rain

Rain

Rain

Clouds

Rain

Clouds

Clouds
Temperature 57°F57°F57°F57°F56°F55°F54°F54°F53°F52°F51°F50°F50°F49°F49°F49°F48°F48°F48°F48°F47°F48°F48°F47°F47°F47°F47°F47°F47°F47°F47°F47°F47°F47°F48°F48°F48°F48°F48°F48°F48°F48°F48°F48°F48°F48°F48°F49°F
Feels Like 57°F58°F57°F57°F56°F55°F53°F53°F52°F51°F51°F50°F46°F45°F45°F44°F43°F43°F42°F42°F41°F42°F41°F41°F41°F40°F40°F40°F40°F40°F40°F40°F40°F41°F41°F41°F41°F41°F42°F41°F41°F41°F41°F41°F42°F42°F42°F43°F
Cloudiness 92%90%92%94%96%98%100%100%100%100%100%100%100%100%100%100%100%100%100%100%100%100%100%100%100%100%100%100%100%100%100%100%100%100%100%100%100%100%100%100%100%100%100%100%100%100%100%100%
Visibility 3 mi3 mi6 mi6 mi6 mi4 mi6 mi4 mi2 mi6 mi4 mi6 mi6 mi4 mi6 mi6 mi6 mi6 mi6 mi6 mi6 mi6 mi6 mi6 mi6 mi6 mi5 mi6 mi6 mi6 mi6 mi6 mi6 mi6 mi6 mi6 mi6 mi6 mi6 mi6 mi6 mi6 mi6 mi6 mi6 mi6 mi6 mi6 mi
Precipitation 100%100%100%100%100%87%88%94%100%100%100%99%100%100%100%100%100%82%85%86%92%92%92%96%100%100%100%100%100%99%100%100%100%100%100%100%100%100%100%100%100%99%97%92%83%83%83%0%
Humidity 99%100%98%95%92%93%95%94%97%98%96%96%96%96%95%95%96%95%95%94%94%93%92%91%91%92%93%92%92%92%92%91%91%91%91%91%90%90%90%91%91%91%91%91%90%89%89%88%
Dew Point 57°F57°F56°F55°F54°F53°F52°F52°F52°F51°F50°F49°F49°F48°F48°F47°F47°F46°F46°F46°F46°F45°F45°F45°F45°F44°F44°F44°F44°F44°F44°F44°F44°F45°F45°F45°F45°F45°F45°F45°F45°F45°F45°F45°F45°F45°F45°F45°F
Pressure 29.62"29.62"29.59"29.59"29.56"29.56"29.53"29.53"29.5"29.47"29.44"29.44"29.41"29.38"29.38"29.38"29.38"29.41"29.44"29.44"29.47"29.47"29.47"29.5"29.5"29.53"29.56"29.56"29.59"29.62"29.62"29.65"29.65"29.65"29.68"29.68"29.68"29.68"29.71"29.71"29.74"29.74"29.77"29.8"29.8"29.8"29.8"29.8"
Wind Speed 10.1 mph11 mph11.3 mph12 mph11.2 mph9.4 mph5.5 mph2.7 mph4.5 mph6.6 mph9.5 mph10.8 mph10.3 mph10.9 mph11.3 mph10.8 mph11.9 mph11.6 mph12.8 mph14.1 mph14.6 mph15.8 mph16.9 mph17.6 mph17.4 mph17.6 mph17.4 mph17.5 mph17.9 mph18.2 mph17.8 mph18.7 mph18.8 mph17.8 mph18.5 mph18.7 mph18.4 mph18 mph17.6 mph17.7 mph18.2 mph17.7 mph17.1 mph17 mph16.5 mph16.1 mph15.5 mph15 mph
Wind
Direction
128°
SE
128°
SE
100°
E
116°
ESE
130°
SE
132°
SE
117°
ESE
90°
E
77°
ENE
45°
NE
46°
NE
39°
NE
42°
NE
35°
NE
33°
NNE
22°
NNE
14°
NNE

N
356°
N
353°
N
351°
N
351°
N
350°
N
347°
NNW
343°
NNW
341°
NNW
339°
NNW
341°
NNW
342°
NNW
339°
NNW
339°
NNW
340°
NNW
341°
NNW
338°
NNW
337°
NNW
336°
NNW
336°
NNW
335°
NNW
334°
NNW
333°
NNW
335°
NNW
335°
NNW
334°
NNW
335°
NNW
334°
NNW
333°
NNW
332°
NNW
336°
NNW

Daily Forecast

Date High Low Precip. Humidity
Today
Oct 27

Rain
60 °F
53 °F
100%
84%
Thursday
Oct 28

Rain
52 °F
47 °F
100%
93%
Friday
Oct 29

Rain
51 °F
47 °F
100%
89%
Saturday
Oct 30

Clear
61 °F
42 °F
0%
55%
Sunday
Oct 31

Clear
61 °F
44 °F
0%
54%
Monday
Nov 1

Clouds
52 °F
42 °F
0%
47%
Tuesday
Nov 2

Rain
51 °F
43 °F
62%
47%
Wednesday
Nov 3

Rain
46 °F
38 °F
100%
69%
Thursday
Nov 4

Clouds
44 °F
32 °F
0%
42%
Friday
Nov 5

Clear
45 °F
29 °F
0%
33%
Saturday
Nov 6

Rain
48 °F
28 °F
34%
36%
Sunday
Nov 7

Rain
43 °F
37 °F
100%
91%
Monday
Nov 8

Clouds
54 °F
44 °F
0%
82%
Tuesday
Nov 9

Clouds
61 °F
52 °F
0%
81%
Wednesday
Nov 10

Clear
68 °F
50 °F
0%
62%
Thursday
Nov 11

Clouds
66 °F
51 °F
0%
73%

Temperature 8-14 Day Outlook



Precipitation 8-14 Day Outlook




Quick Links
Harry S. Truman Reservoir News
Harry S. Truman Reservoir Photos
Harry S. Truman Reservoir Videos




About Us
Contact Us
Site Map
Search Site
Advertise With Us
   
Truman.USLakes.info
THE HARRY S. TRUMAN RESERVOIR WEBSITE

Copyright 2021, Lakes Online
Privacy    |    Legal